Weather History for KFNB - February, 2014

Change the Weather History Date:

Monday, February 3, 2014

  Actual Average Record
Temperature  
Mean Temperature 12 °F -  
Max Temperature 25 °F 37 °F 70 °F (1992)
Min Temperature 0 °F 15 °F -12 °F (1989)
Degree Days  
Heating Degree Days 52    
Moisture  
Dew Point 6 °F    
Average Humidity 71    
Maximum Humidity 83    
Minimum Humidity 60    
Precipitation  
Precipitation 0.00 in - - ()
Sea Level Pressure  
Sea Level Pressure 30.32 in    
Wind  
Wind Speed 7 mph (SE)    
Max Wind Speed 10 mph    
Max Gust Speed -    
Visibility 10 miles    
Events      
Averages and records for this station are not official NWS values.
T = Trace of Precipitation, MM = Missing Value Source: NWS Daily Summary

Daily Weather History Graph

Daily Weather History Graph

Search for Another Location

Airport or City:

Trip Planner

Search our weather history database for the weather conditions in past years. The results will help you decide how hot, cold, wet, or windy it might be!

Date:

Astronomy

Feb. 03, 2014 Rise Set
Actual Time 7:29 AM CST 5:43 PM CST
Civil Twilight 7:00 AM CST 6:12 PM CST
Nautical Twilight 6:28 AM CST 6:44 PM CST
Astronomical Twilight 5:56 AM CST 7:16 PM CST
Moon 9:31 AM CST (2/3) 10:35 PM CST (2/3)
Length of Visible Light 11h 11m
Length of Day
10h 14m
Waxing Crescent, 20% of the Moon is Illuminated
Feb 3
Waxing Crescent
Feb 6
First Quarter
Feb 14
Full
Feb 22
Last Quarter
Mar 1
New

Hourly Weather History & Observations

Time (CST) Temp. Windchill Dew Point Humidity Pressure Visibility Wind Dir Wind Speed Gust Speed Precip Events Conditions
12:53 AM 1.9 °F -9.2 °F -2.9 °F 80% 30.36 in 10.0 mi South 5.8 mph - N/A   Clear
1:53 AM 3.0 °F -8.0 °F -2.0 °F 80% 30.36 in 10.0 mi SE 5.8 mph - N/A   Clear
2:53 AM 1.9 °F -9.2 °F -2.9 °F 80% 30.36 in 10.0 mi South 5.8 mph - N/A   Clear
3:53 AM -0.0 °F -9.9 °F -5.1 °F 79% 30.35 in 10.0 mi SSE 4.6 mph - N/A   Clear
4:53 AM -0.9 °F -15.3 °F -5.1 °F 83% 30.34 in 10.0 mi SSE 8.1 mph - N/A   Clear
5:53 AM -0.0 °F -13.0 °F -5.1 °F 79% 30.34 in 10.0 mi SSE 6.9 mph - N/A   Clear
6:53 AM 1.0 °F -12.9 °F -2.9 °F 83% 30.34 in 10.0 mi South 8.1 mph - N/A   Clear
7:53 AM 3.0 °F -9.3 °F -2.0 °F 80% 30.35 in 10.0 mi South 6.9 mph - N/A   Clear
8:53 AM 7.0 °F -3.3 °F 1.0 °F 77% 30.37 in 10.0 mi SSE 5.8 mph - N/A   Clear
9:53 AM 12.9 °F 1.6 °F 5.0 °F 71% 30.37 in 10.0 mi SSE 8.1 mph - N/A   Clear
10:53 AM 16.0 °F 3.6 °F 6.1 °F 65% 30.36 in 10.0 mi South 10.4 mph - N/A   Clear
11:53 AM 19.0 °F 7.5 °F 8.1 °F 62% 30.35 in 10.0 mi South 10.4 mph - N/A   Clear
12:53 PM 21.0 °F 10.6 °F 10.0 °F 63% 30.32 in 10.0 mi SE 9.2 mph - N/A   Clear
1:53 PM 21.9 °F 12.5 °F 10.0 °F 60% 30.31 in 10.0 mi SSE 8.1 mph - N/A   Clear
2:53 PM 23.0 °F 17.0 °F 10.9 °F 60% 30.29 in 10.0 mi ESE 4.6 mph - N/A   Mostly Cloudy
3:53 PM 23.0 °F 15.8 °F 12.0 °F 63% 30.28 in 10.0 mi ESE 5.8 mph - N/A   Mostly Cloudy
4:53 PM 24.1 °F 15.2 °F 14.0 °F 65% 30.27 in 10.0 mi East 8.1 mph - N/A   Overcast
5:53 PM 24.1 °F 16.0 °F 14.0 °F 65% 30.26 in 10.0 mi ESE 6.9 mph - N/A   Overcast
6:53 PM 25.0 °F 18.1 °F 14.0 °F 63% 30.26 in 10.0 mi ESE 5.8 mph - N/A   Overcast
7:53 PM 24.1 °F 16.0 °F 14.0 °F 65% 30.27 in 10.0 mi ESE 6.9 mph - N/A   Overcast
8:53 PM 24.1 °F 15.2 °F 14.0 °F 65% 30.27 in 10.0 mi East 8.1 mph - N/A   Overcast
9:53 PM 24.1 °F 16.0 °F 15.1 °F 69% 30.28 in 10.0 mi East 6.9 mph - N/A   Overcast
10:53 PM 24.1 °F 17.0 °F 15.1 °F 69% 30.28 in 10.0 mi East 5.8 mph - N/A   Overcast
11:53 PM 24.1 °F 16.0 °F 16.0 °F 71% 30.27 in 10.0 mi East 6.9 mph - N/A   Overcast